This is the latest recevied weather packets stored in our database for station/object DL1GHN-6. If no packets are shown the sender has not sent any weather packets the latest 10 day(s).
| Time | Temp. | Humidity | Pressure | Rain* | Wind** | Luminosity | Snow |
|---|---|---|---|---|---|---|---|
| 1777454732 | 18.89° C | 44% | 1019.3 hPa | 0 mm | - | 701 W/m² | - |
| 1777454433 | 18.33° C | 48% | 1019.2 hPa | 0 mm | - | 691 W/m² | - |
| 1777454132 | 17.78° C | 47% | 1019.3 hPa | 0 mm | - | 686 W/m² | - |
| 1777453833 | 17.78° C | 47% | 1019.4 hPa | 0 mm | - | 679 W/m² | - |
| 1777453533 | 17.78° C | 47% | 1019.4 hPa | 0 mm | - | 668 W/m² | - |
| 1777453232 | 17.78° C | 46% | 1019.4 hPa | 0 mm | - | 659 W/m² | - |
| 1777452932 | 17.78° C | 49% | 1019.4 hPa | 0 mm | - | 649 W/m² | - |
| 1777452633 | 17.22° C | 50% | 1019.5 hPa | 0 mm | - | 636 W/m² | - |
| 1777452333 | 17.22° C | 48% | 1019.4 hPa | 0 mm | - | 629 W/m² | - |
| 1777452032 | 16.67° C | 52% | 1019.3 hPa | 0 mm | - | 615 W/m² | - |
| 1777451732 | 16.67° C | 52% | 1019.4 hPa | 0 mm | - | 610 W/m² | - |
| 1777451433 | 16.67° C | 52% | 1019.4 hPa | 0 mm | - | 598 W/m² | - |
| 1777451133 | 16.11° C | 52% | 1019.4 hPa | 0 mm | - | 585 W/m² | - |
| 1777450833 | 15.56° C | 52% | 1019.4 hPa | 0 mm | - | 573 W/m² | - |
| 1777450532 | 15.56° C | 51% | 1019.5 hPa | 0 mm | - | 561 W/m² | - |
| 1777450232 | 15° C | 52% | 1019.5 hPa | 0 mm | - | 548 W/m² | - |
| 1777449932 | 15° C | 52% | 1019.5 hPa | 0 mm | - | 540 W/m² | - |
| 1777449633 | 15° C | 52% | 1019.4 hPa | 0 mm | - | 527 W/m² | - |
| 1777449332 | 15° C | 54% | 1019.4 hPa | 0 mm | - | 512 W/m² | - |
| 1777449032 | 14.44° C | 54% | 1019.5 hPa | 0 mm | - | 497 W/m² | - |
| 1777448732 | 14.44° C | 54% | 1019.5 hPa | 0 mm | - | 490 W/m² | - |
| 1777448432 | 14.44° C | 53% | 1019.5 hPa | 0 mm | - | 476 W/m² | - |
| 1777448133 | 13.89° C | 55% | 1019.4 hPa | 0 mm | - | 466 W/m² | - |
| 1777447833 | 13.89° C | 55% | 1019.5 hPa | 0 mm | - | 446 W/m² | - |
| 1777447532 | 13.33° C | 56% | 1019.5 hPa | 0 mm | - | 404 W/m² | - |
* Rain latest hour (hover to see other rain measurements)
** Current wind speed in m/s (hover to see current wind gust speed)